| time (UTC) | temp C | wind direction | speed KPH | gust KPH | rain 1hr cm | rain 24hr cm | rain mn cm | humidity % | barometer mb |
| 20260507000457 | 6 | 54 | 4.8 | 6.4 | 0.00 | 1.70 | 1.70 | 97 | 1006.4 |
| 20260506235952 | 6 | 49 | 3.2 | 4.8 | 0.00 | 1.70 | 1.70 | 98 | 1006.4 |
| 20260506235450 | 7 | 195 | 3.2 | 4.8 | 0.00 | 1.70 | 1.70 | 98 | 1006.4 |
| 20260506234946 | 6 | 134 | 3.2 | 4.8 | 0.00 | 1.70 | 1.70 | 98 | 1006.1 |
| 20260506234444 | 7 | 44 | 6.4 | 6.4 | 0.00 | 1.70 | 1.70 | 98 | 1006.1 |
| 20260506233941 | 7 | 48 | 3.2 | 3.2 | 0.00 | 1.70 | 1.70 | 98 | 1006.1 |
| 20260506233437 | 7 | 76 | 3.2 | 4.8 | 0.00 | 1.70 | 1.70 | 98 | 1005.8 |
| 20260506232934 | 7 | 102 | 3.2 | 3.2 | 0.00 | 1.70 | 1.70 | 98 | 1005.8 |
| 20260506232430 | 7 | 84 | 1.6 | 3.2 | 0.00 | 1.70 | 1.70 | 98 | 1005.8 |
| 20260506231926 | 7 | 48 | 4.8 | 6.4 | 0.00 | 1.70 | 1.70 | 98 | 1005.8 |
| 20260506231423 | 7 | 75 | 4.8 | 4.8 | 0.00 | 1.70 | 1.70 | 98 | 1005.8 |
| 20260506230921 | 7 | 31 | 12.9 | 16.1 | 0.00 | 1.70 | 1.70 | 98 | 1005.8 |
| 20260506230417 | 7 | 136 | 0.0 | 1.6 | 0.00 | 1.70 | 1.70 | 98 | 1005.3 |
| 20260506225914 | 7 | 36 | 3.2 | 3.2 | 0.00 | 1.70 | 1.70 | 98 | 1005.3 |
| 20260506225411 | 7 | 103 | 3.2 | 3.2 | 0.00 | 1.70 | 1.70 | 98 | 1005.8 |
| 20260506224908 | 7 | 50 | 1.6 | 3.2 | 0.00 | 1.70 | 1.70 | 98 | 1005.3 |
| 20260506224405 | 7 | 343 | 4.8 | 6.4 | 0.00 | 1.70 | 1.70 | 98 | 1005.3 |
| 20260506223901 | 7 | 94 | 0.0 | 1.6 | 0.00 | 1.70 | 1.70 | 98 | 1005.3 |
| 20260506223356 | 7 | 81 | 11.3 | 14.5 | 0.00 | 1.70 | 1.70 | 98 | 1005.0 |
| 20260506222854 | 7 | 153 | 0.0 | 0.0 | 0.00 | 1.70 | 1.70 | 98 | 1005.3 |
| 20260506222350 | 7 | 131 | 1.6 | 1.6 | 0.00 | 1.70 | 1.70 | 98 | 1005.3 |
| 20260506221848 | 7 | 155 | 0.0 | 0.0 | 0.00 | 1.70 | 1.70 | 98 | 1005.0 |
| 20260506221345 | 7 | 95 | 3.2 | 3.2 | 0.00 | 1.70 | 1.70 | 98 | 1005.0 |
| 20260506220842 | 7 | 108 | 0.0 | 0.0 | 0.00 | 1.70 | 1.70 | 98 | 1005.0 |
| 20260506220338 | 7 | 45 | 6.4 | 9.7 | 0.00 | 1.70 | 1.70 | 98 | 1005.3 |
| 20260506215835 | 7 | 39 | 3.2 | 3.2 | 0.00 | 1.70 | 1.70 | 98 | 1005.0 |
| 20260506215330 | 7 | 109 | 1.6 | 1.6 | 0.00 | 1.70 | 1.70 | 98 | 1004.6 |
| 20260506214827 | 7 | 44 | 6.4 | 6.4 | 0.00 | 1.70 | 1.70 | 98 | 1004.6 |
| 20260506214324 | 7 | 79 | 3.2 | 4.8 | 0.00 | 1.70 | 1.70 | 98 | 1005.0 |
| 20260506213822 | 8 | 75 | 4.8 | 4.8 | 0.00 | 1.70 | 1.70 | 98 | 1004.6 |
| 20260506213319 | 8 | 97 | 3.2 | 4.8 | 0.00 | 1.70 | 1.70 | 98 | 1004.6 |
| 20260506212816 | 8 | 76 | 1.6 | 3.2 | 0.00 | 1.70 | 1.70 | 98 | 1004.6 |
| 20260506212312 | 8 | 82 | 4.8 | 6.4 | 0.00 | 1.70 | 1.70 | 98 | 1004.6 |
| 20260506211807 | 8 | 105 | 1.6 | 1.6 | 0.00 | 1.70 | 1.70 | 99 | 1004.6 |
| 20260506211303 | 8 | 342 | 6.4 | 6.4 | 0.00 | 1.70 | 1.70 | 98 | 1005.0 |
| 20260506210801 | 8 | 68 | 4.8 | 4.8 | 0.00 | 1.70 | 1.70 | 98 | 1005.0 |
| 20260506210257 | 9 | 69 | 1.6 | 1.6 | 0.00 | 1.70 | 1.70 | 98 | 1004.6 |
| 20260506205754 | 10 | 79 | 3.2 | 4.8 | 0.00 | 1.70 | 1.70 | 98 | 1004.6 |
| 20260506205250 | 10 | 6 | 3.2 | 3.2 | 0.00 | 1.70 | 1.70 | 98 | 1004.6 |
| 20260506204747 | 10 | 175 | 1.6 | 3.2 | 0.00 | 1.70 | 1.70 | 98 | 1004.6 |
| 20260506204245 | 10 | 76 | 1.6 | 3.2 | 0.18 | 1.70 | 1.70 | 98 | 1004.3 |
| 20260506203742 | 10 | 75 | 0.0 | 1.6 | 0.30 | 1.70 | 1.70 | 98 | 1004.3 |
| 20260506203239 | 10 | 125 | 1.6 | 1.6 | 0.79 | 1.68 | 1.68 | 98 | 1004.3 |
| 20260506202736 | 11 | 338 | 8.0 | 9.7 | 1.09 | 1.63 | 1.63 | 98 | 1004.3 |
| 20260506202233 | 12 | 201 | 4.8 | 4.8 | 0.89 | 1.55 | 1.55 | 98 | 1004.0 |
| 20260506201730 | 13 | 304 | 6.4 | 6.4 | 0.61 | 1.45 | 1.45 | 98 | 1004.3 |
| 20260506201226 | 14 | 177 | 3.2 | 3.2 | 0.30 | 1.37 | 1.37 | 98 | 1004.0 |
| 20260506200723 | 14 | 250 | 4.8 | 4.8 | 0.13 | 1.35 | 1.35 | 98 | 1004.0 |
| 20260506200220 | 14 | 237 | 3.2 | 4.8 | 0.00 | 1.32 | 1.32 | 98 | 1004.0 |
| 20260506195716 | 14 | 163 | 3.2 | 3.2 | 0.00 | 1.32 | 1.32 | 98 | 1003.6 |
| 20260506195212 | 14 | 195 | 4.8 | 6.4 | 0.18 | 1.32 | 1.32 | 97 | 1004.0 |
| 20260506194705 | 14 | 204 | 3.2 | 3.2 | 0.13 | 1.30 | 1.30 | 97 | 1004.0 |
| 20260506194201 | 14 | 202 | 3.2 | 3.2 | 0.30 | 1.30 | 1.30 | 97 | 1004.0 |
| 20260506193658 | 14 | 179 | 3.2 | 6.4 | 0.36 | 1.27 | 1.27 | 97 | 1004.0 |
| 20260506193155 | 14 | 182 | 3.2 | 4.8 | 0.18 | 1.24 | 1.24 | 97 | 1004.3 |
| 20260506192652 | 14 | 173 | 3.2 | 4.8 | 0.00 | 1.22 | 1.22 | 98 | 1004.0 |
| 20260506192148 | 14 | 205 | 4.8 | 4.8 | 0.13 | 1.22 | 1.22 | 98 | 1004.3 |
| 20260506191646 | 14 | 168 | 1.6 | 1.6 | 0.13 | 1.22 | 1.22 | 98 | 1004.3 |
| 20260506191141 | 14 | 152 | 0.0 | 0.0 | 0.00 | 1.19 | 1.19 | 98 | 1004.3 |
| 20260506190639 | 13 | 208 | 6.4 | 6.4 | 0.00 | 1.19 | 1.19 | 98 | 1004.3 |
| 20260506190135 | 14 | 162 | 3.2 | 3.2 | 0.18 | 1.19 | 1.19 | 99 | 1004.0 |
| 20260506185633 | 14 | 156 | 1.6 | 3.2 | 0.18 | 1.19 | 1.19 | 99 | 1004.3 |
| 20260506185129 | 13 | 151 | 3.2 | 3.2 | 0.00 | 1.17 | 1.17 | 99 | 1004.3 |
| 20260506184626 | 13 | 156 | 0.0 | 1.6 | 0.00 | 1.17 | 1.17 | 99 | 1004.6 |
| 20260506184123 | 13 | 155 | 0.0 | 0.0 | 0.00 | 1.17 | 1.17 | 99 | 1004.3 |
| 20260506183620 | 13 | 160 | 0.0 | 1.6 | 0.00 | 1.17 | 1.17 | 99 | 1004.6 |
| 20260506183116 | 13 | 175 | 1.6 | 1.6 | 0.00 | 1.17 | 1.17 | 99 | 1004.6 |
| 20260506182614 | 13 | 175 | 3.2 | 3.2 | 0.00 | 1.17 | 1.17 | 99 | 1004.6 |
| 20260506182110 | 13 | 186 | 0.0 | 0.0 | 0.30 | 1.17 | 1.17 | 99 | 1004.6 |
| 20260506181609 | 13 | 113 | 1.6 | 1.6 | 0.30 | 1.14 | 1.14 | 99 | 1004.6 |
| 20260506181105 | 13 | 187 | 3.2 | 3.2 | 0.30 | 1.12 | 1.12 | 98 | 1005.0 |
| 20260506180602 | 13 | 117 | 0.0 | 1.6 | 0.30 | 1.09 | 1.09 | 98 | 1004.6 |
| 20260506180059 | 13 | 135 | 0.0 | 0.0 | 0.30 | 1.07 | 1.07 | 98 | 1005.0 |
| 20260506175555 | 13 | 159 | 0.0 | 0.0 | 0.30 | 1.04 | 1.04 | 98 | 1005.3 |
| 20260506175051 | 13 | 160 | 0.0 | 0.0 | 0.43 | 1.02 | 1.02 | 98 | 1005.3 |
| 20260506174550 | 13 | 158 | 1.6 | 1.6 | 0.48 | 0.97 | 0.97 | 97 | 1005.3 |
| 20260506174046 | 13 | 169 | 0.0 | 0.0 | 0.48 | 0.94 | 0.94 | 97 | 1005.3 |
| 20260506173544 | 13 | 179 | 1.6 | 1.6 | 0.43 | 0.89 | 0.89 | 97 | 1005.3 |
| 20260506173040 | 13 | 172 | 0.0 | 0.0 | 0.43 | 0.84 | 0.84 | 97 | 1005.3 |
| 20260506172538 | 13 | 188 | 1.6 | 1.6 | 0.48 | 0.81 | 0.81 | 97 | 1005.3 |
| 20260506172034 | 13 | 189 | 1.6 | 3.2 | 0.61 | 0.76 | 0.76 | 97 | 1005.8 |
| 20260506171531 | 13 | 178 | 8.0 | 9.7 | 0.79 | 0.71 | 0.71 | 97 | 1005.8 |
| 20260506171029 | 13 | 156 | 3.2 | 3.2 | 0.66 | 0.66 | 0.66 | 97 | 1006.1 |
| 20260506170526 | 13 | 162 | 1.6 | 1.6 | 0.48 | 0.58 | 0.58 | 97 | 1005.8 |
| 20260506170023 | 13 | 167 | 1.6 | 1.6 | 0.43 | 0.56 | 0.56 | 96 | 1005.8 |
| 20260506165522 | 13 | 162 | 0.0 | 0.0 | 0.61 | 0.51 | 0.51 | 96 | 1005.8 |
| 20260506165018 | 13 | 160 | 3.2 | 3.2 | 1.27 | 0.48 | 0.48 | 95 | 1006.1 |
| 20260506164514 | 13 | 210 | 1.6 | 1.6 | 0.48 | 0.33 | 0.33 | 95 | 1006.1 |
| 20260506164012 | 13 | 195 | 1.6 | 1.6 | 0.13 | 0.28 | 0.28 | 95 | 1005.8 |
| 20260506163508 | 13 | 160 | 1.6 | 1.6 | 0.18 | 0.25 | 0.25 | 94 | 1005.8 |
| 20260506163004 | 13 | 133 | 0.0 | 0.0 | 0.30 | 0.25 | 0.25 | 95 | 1005.8 |
| 20260506162500 | 13 | 164 | 3.2 | 4.8 | 0.13 | 0.23 | 0.23 | 94 | 1006.1 |
| 20260506161957 | 13 | 197 | 1.6 | 1.6 | 0.18 | 0.20 | 0.20 | 94 | 1006.1 |
| 20260506161455 | 13 | 183 | 6.4 | 6.4 | 0.13 | 0.18 | 0.18 | 94 | 1006.1 |
| 20260506160952 | 13 | 189 | 1.6 | 3.2 | 0.13 | 0.18 | 0.18 | 94 | 1006.4 |
| 20260506160449 | 13 | 220 | 1.6 | 3.2 | 0.00 | 0.15 | 0.15 | 94 | 1006.4 |
| 20260506155946 | 13 | 192 | 6.4 | 6.4 | 0.18 | 0.15 | 0.15 | 93 | 1006.4 |
| 20260506155444 | 13 | 193 | 3.2 | 3.2 | 0.18 | 0.15 | 0.15 | 94 | 1006.4 |
| 20260506153611 | 13 | 126 | 1.6 | 1.6 | 0.13 | 0.13 | 0.13 | 94 | 1006.8 |
| 20260506153108 | 13 | 206 | 6.4 | 9.7 | 0.00 | 0.10 | 0.10 | 93 | 1006.8 |
| 20260506152605 | 13 | 150 | 0.0 | 1.6 | 0.00 | 0.10 | 0.10 | 94 | 1006.8 |
| 20260506152103 | 12 | 206 | 6.4 | 6.4 | 0.00 | 0.10 | 0.10 | 93 | 1007.1 |
| 20260506151601 | 12 | 174 | 1.6 | 1.6 | 0.18 | 0.10 | 0.10 | 93 | 1007.1 |
| 20260506151058 | 12 | 191 | 1.6 | 1.6 | 0.18 | 0.10 | 0.10 | 93 | 1007.1 |
| 20260506150554 | 12 | 190 | 3.2 | 3.2 | 0.00 | 0.08 | 0.08 | 93 | 1007.4 |
| 20260506150051 | 12 | 181 | 4.8 | 4.8 | 0.00 | 0.08 | 0.08 | 93 | 1007.1 |
| 20260506145548 | 12 | 181 | 1.6 | 1.6 | 0.13 | 0.08 | 0.08 | 93 | 1007.4 |
| 20260506145045 | 12 | 191 | 1.6 | 1.6 | 0.13 | 0.08 | 0.08 | 93 | 1007.1 |
| 20260506144542 | 12 | 195 | 3.2 | 3.2 | 0.00 | 0.05 | 0.05 | 93 | 1007.1 |
| 20260506144039 | 12 | 223 | 4.8 | 4.8 | 0.18 | 0.05 | 0.05 | 92 | 1007.4 |
| 20260506143537 | 12 | 168 | 1.6 | 3.2 | 0.18 | 0.05 | 0.05 | 92 | 1007.4 |
| 20260506143035 | 13 | 179 | 1.6 | 1.6 | 0.13 | 0.03 | 0.03 | 91 | 1007.4 |
| 20260506142532 | 13 | 168 | 0.0 | 1.6 | 0.13 | 0.03 | 0.03 | 91 | 1007.4 |
| 20260506142031 | 13 | 186 | 1.6 | 1.6 | 0.00 | 0.00 | 0.00 | 90 | 1007.1 |
| 20260506141528 | 13 | 223 | 6.4 | 6.4 | 0.00 | 0.00 | 0.00 | 90 | 1007.1 |
| 20260506141026 | 13 | 184 | 3.2 | 3.2 | 0.00 | 0.00 | 0.00 | 90 | 1007.1 |
| 20260506140523 | 13 | 171 | 3.2 | 4.8 | 0.00 | 0.00 | 0.00 | 89 | 1007.1 |
| 20260506140020 | 13 | 184 | 4.8 | 4.8 | 0.00 | 0.00 | 0.00 | 89 | 1007.1 |
| 20260506135517 | 13 | 202 | 3.2 | 4.8 | 0.00 | 0.00 | 0.00 | 89 | 1007.4 |
| 20260506135013 | 12 | 177 | 4.8 | 4.8 | 0.00 | 0.00 | 0.00 | 90 | 1007.1 |
| 20260506134510 | 12 | 201 | 4.8 | 4.8 | 0.00 | 0.00 | 0.00 | 90 | 1007.1 |
| 20260506134006 | 12 | 176 | 0.0 | 1.6 | 0.00 | 0.00 | 0.00 | 90 | 1007.1 |
| 20260506133503 | 12 | 201 | 3.2 | 4.8 | 0.00 | 0.00 | 0.00 | 90 | 1007.1 |
| 20260506133000 | 12 | 170 | 0.0 | 0.0 | 0.00 | 0.00 | 0.00 | 90 | 1007.1 |
| 20260506132457 | 12 | 179 | 0.0 | 1.6 | 0.00 | 0.00 | 0.00 | 91 | 1007.4 |
| 20260506131954 | 12 | 172 | 3.2 | 3.2 | 0.00 | 0.00 | 0.00 | 91 | 1007.4 |
| 20260506131451 | 12 | 208 | 4.8 | 6.4 | 0.00 | 0.00 | 0.00 | 91 | 1007.4 |
| 20260506130948 | 12 | 201 | 6.4 | 6.4 | 0.00 | 0.00 | 0.00 | 91 | 1007.4 |
| 20260506130444 | 12 | 201 | 6.4 | 9.7 | 0.00 | 0.00 | 0.00 | 91 | 1007.8 |
| 20260506125942 | 12 | 206 | 4.8 | 4.8 | 0.00 | 0.00 | 0.00 | 91 | 1007.8 |
| 20260506125440 | 12 | 206 | 6.4 | 9.7 | 0.00 | 0.00 | 0.00 | 91 | 1007.8 |
| 20260506124938 | 12 | 195 | 6.4 | 6.4 | 0.00 | 0.00 | 0.00 | 91 | 1007.4 |
| 20260506124435 | 12 | 180 | 1.6 | 1.6 | 0.00 | 0.00 | 0.00 | 91 | 1007.4 |
| 20260506123933 | 12 | 105 | 1.6 | 1.6 | 0.00 | 0.00 | 0.00 | 90 | 1007.4 |
| 20260506123431 | 12 | 180 | 1.6 | 3.2 | 0.00 | 0.00 | 0.00 | 90 | 1007.4 |
| 20260506122929 | 12 | 181 | 6.4 | 6.4 | 0.00 | 0.00 | 0.00 | 90 | 1007.4 |
| 20260506122425 | 12 | 190 | 4.8 | 4.8 | 0.00 | 0.00 | 0.00 | 90 | 1007.4 |
| 20260506121924 | 12 | 190 | 6.4 | 6.4 | 0.00 | 0.00 | 0.00 | 90 | 1007.4 |
| 20260506121420 | 12 | 190 | 6.4 | 6.4 | 0.00 | 0.00 | 0.00 | 90 | 1007.8 |
| 20260506120917 | 12 | 249 | 6.4 | 9.7 | 0.00 | 0.00 | 0.00 | 90 | 1007.8 |
| 20260506120414 | 12 | 213 | 1.6 | 3.2 | 0.00 | 0.00 | 0.00 | 90 | 1007.8 |
| 20260506115912 | 12 | 174 | 3.2 | 3.2 | 0.00 | 0.00 | 0.00 | 90 | 1007.4 |
| 20260506115410 | 12 | 189 | 6.4 | 6.4 | 0.00 | 0.00 | 0.00 | 90 | 1007.8 |
| 20260506114908 | 12 | 246 | 8.0 | 11.3 | 0.00 | 0.00 | 0.00 | 90 | 1007.8 |
| 20260506114405 | 12 | 213 | 3.2 | 3.2 | 0.00 | 0.00 | 0.00 | 90 | 1007.8 |
| 20260506113904 | 12 | 191 | 3.2 | 3.2 | 0.00 | 0.00 | 0.00 | 90 | 1007.4 |
| 20260506113401 | 12 | 208 | 11.3 | 17.7 | 0.00 | 0.00 | 0.00 | 90 | 1007.8 |
| 20260506112857 | 12 | 212 | 8.0 | 11.3 | 0.00 | 0.00 | 0.00 | 91 | 1007.4 |
| 20260506112354 | 12 | 206 | 8.0 | 9.7 | 0.00 | 0.00 | 0.00 | 93 | 1007.4 |
| 20260506111851 | 12 | 194 | 6.4 | 6.4 | 0.00 | 0.00 | 0.00 | 95 | 1007.4 |
| 20260506111350 | 11 | 184 | 3.2 | 4.8 | 0.00 | 0.00 | 0.00 | 96 | 1007.4 |
| 20260506110847 | 11 | 207 | 3.2 | 3.2 | 0.00 | 0.00 | 0.00 | 97 | 1007.4 |
| 20260506110344 | 11 | 198 | 0.0 | 0.0 | 0.00 | 0.00 | 0.00 | 97 | 1007.4 |
| 20260506105841 | 11 | 198 | 4.8 | 4.8 | 0.00 | 0.00 | 0.00 | 97 | 1007.8 |
| 20260506105337 | 11 | 185 | 0.0 | 0.0 | 0.00 | 0.00 | 0.00 | 97 | 1008.1 |
| 20260506104835 | 11 | 187 | 0.0 | 1.6 | 0.00 | 0.00 | 0.00 | 97 | 1007.8 |
| 20260506104332 | 10 | 160 | 3.2 | 3.2 | 0.00 | 0.00 | 0.00 | 97 | 1007.4 |
| 20260506103830 | 10 | 163 | 0.0 | 0.0 | 0.00 | 0.00 | 0.00 | 97 | 1007.8 |
| 20260506103327 | 10 | 188 | 1.6 | 1.6 | 0.00 | 0.00 | 0.00 | 96 | 1007.4 |
| 20260506102825 | 11 | 181 | 0.0 | 0.0 | 0.00 | 0.00 | 0.00 | 96 | 1007.4 |
| 20260506102322 | 11 | 161 | 0.0 | 0.0 | 0.00 | 0.00 | 0.00 | 96 | 1007.4 |
| 20260506101820 | 10 | 167 | 0.0 | 0.0 | 0.00 | 0.00 | 0.00 | 96 | 1007.8 |
| 20260506101315 | 10 | 180 | 0.0 | 1.6 | 0.00 | 0.00 | 0.00 | 96 | 1007.4 |
| 20260506100814 | 10 | 155 | 0.0 | 0.0 | 0.00 | 0.00 | 0.00 | 96 | 1007.4 |
| 20260506100312 | 10 | 177 | 1.6 | 1.6 | 0.00 | 0.00 | 0.00 | 96 | 1007.8 |
| 20260506095810 | 10 | 166 | 0.0 | 0.0 | 0.00 | 0.00 | 0.00 | 96 | 1007.8 |
| 20260506095306 | 10 | 161 | 0.0 | 0.0 | 0.00 | 0.00 | 0.00 | 96 | 1007.4 |
| 20260506094803 | 10 | 170 | 1.6 | 1.6 | 0.00 | 0.00 | 0.00 | 95 | 1007.8 |
| 20260506094302 | 11 | 170 | 1.6 | 1.6 | 0.00 | 0.00 | 0.00 | 95 | 1007.8 |
| 20260506093800 | 10 | 157 | 1.6 | 1.6 | 0.00 | 0.00 | 0.00 | 95 | 1007.4 |
| 20260506093256 | 10 | 167 | 0.0 | 0.0 | 0.00 | 0.00 | 0.00 | 95 | 1007.8 |
| 20260506092754 | 10 | 169 | 0.0 | 0.0 | 0.00 | 0.00 | 0.00 | 95 | 1007.8 |
| 20260506092252 | 10 | 166 | 0.0 | 0.0 | 0.00 | 0.00 | 0.00 | 95 | 1007.8 |
| 20260506091749 | 11 | 165 | 1.6 | 1.6 | 0.00 | 0.00 | 0.00 | 95 | 1007.4 |
| 20260506091246 | 11 | 166 | 1.6 | 1.6 | 0.00 | 0.00 | 0.00 | 95 | 1007.8 |
| 20260506090744 | 11 | 209 | 3.2 | 3.2 | 0.00 | 0.00 | 0.00 | 94 | 1007.8 |
| 20260506090241 | 11 | 166 | 0.0 | 0.0 | 0.00 | 0.00 | 0.00 | 94 | 1007.8 |
| 20260506085738 | 11 | 160 | 0.0 | 1.6 | 0.00 | 0.00 | 0.00 | 94 | 1008.1 |
| 20260506085234 | 11 | 162 | 1.6 | 1.6 | 0.00 | 0.00 | 0.00 | 94 | 1007.8 |
| 20260506084731 | 11 | 176 | 0.0 | 0.0 | 0.00 | 0.00 | 0.00 | 94 | 1008.1 |
| 20260506084227 | 11 | 176 | 0.0 | 0.0 | 0.00 | 0.00 | 0.00 | 94 | 1008.1 |
| 20260506083724 | 11 | 172 | 0.0 | 0.0 | 0.00 | 0.00 | 0.00 | 94 | 1008.1 |
| 20260506083222 | 11 | 172 | 0.0 | 0.0 | 0.00 | 0.00 | 0.00 | 94 | 1008.6 |
| 20260506082719 | 11 | 172 | 0.0 | 0.0 | 0.00 | 0.00 | 0.00 | 94 | 1008.6 |
| 20260506082214 | 11 | 172 | 1.6 | 1.6 | 0.00 | 0.00 | 0.00 | 94 | 1008.6 |
| 20260506081712 | 11 | 164 | 0.0 | 1.6 | 0.00 | 0.00 | 0.00 | 94 | 1008.6 |
| 20260506081210 | 11 | 171 | 0.0 | 1.6 | 0.00 | 0.00 | 0.00 | 94 | 1008.6 |
| 20260506080708 | 11 | 173 | 1.6 | 1.6 | 0.00 | 0.00 | 0.00 | 94 | 1008.1 |
| 20260506080204 | 11 | 158 | 3.2 | 3.2 | 0.00 | 0.00 | 0.00 | 94 | 1008.1 |
| 20260506073148 | 12 | 209 | 1.6 | 1.6 | 0.00 | 0.00 | 0.00 | 93 | 1008.1 |
| 20260506072644 | 12 | 175 | 1.6 | 3.2 | 0.00 | 0.00 | 0.00 | 93 | 1008.1 |
| 20260506072142 | 12 | 163 | 0.0 | 0.0 | 0.00 | 0.00 | 0.00 | 92 | 1008.1 |
| 20260506071640 | 12 | 151 | 1.6 | 1.6 | 0.00 | 0.00 | 0.00 | 91 | 1008.1 |
| 20260506071137 | 13 | 157 | 0.0 | 0.0 | 0.00 | 0.00 | 0.00 | 91 | 1008.1 |
| 20260506070634 | 13 | 196 | 1.6 | 1.6 | 0.00 | 0.00 | 0.00 | 89 | 1008.1 |
| 20260506070131 | 13 | 204 | 3.2 | 4.8 | 0.00 | 0.00 | 0.00 | 87 | 1008.1 |
| 20260506062109 | 13 | 252 | 3.2 | 3.2 | 0.00 | 0.00 | 0.00 | 95 | 1008.6 |
| 20260506061604 | 13 | 157 | 1.6 | 1.6 | 0.00 | 0.00 | 0.00 | 95 | 1008.1 |
| 20260506061102 | 13 | 148 | 0.0 | 1.6 | 0.00 | 0.00 | 0.00 | 95 | 1008.1 |
| 20260506060600 | 13 | 161 | 0.0 | 0.0 | 0.00 | 0.00 | 0.00 | 95 | 1008.1 |
| 20260506051029 | 13 | 219 | 4.8 | 4.8 | 0.00 | 0.00 | 0.00 | 95 | 1008.6 |
| 20260506050527 | 13 | 170 | 0.0 | 0.0 | 0.00 | 0.00 | 0.00 | 95 | 1008.6 |
| 20260506045017 | 12 | 195 | 3.2 | 3.2 | 0.00 | 0.00 | 0.00 | 96 | 1008.6 |
| 20260506044515 | 13 | 155 | 1.6 | 1.6 | 0.00 | 0.00 | 0.00 | 95 | 1008.6 |
| 20260506044012 | 13 | 163 | 3.2 | 3.2 | 0.00 | 0.00 | 0.00 | 95 | 1008.1 |
| 20260506043509 | 13 | 139 | 1.6 | 1.6 | 0.00 | 0.00 | 0.00 | 95 | 1008.6 |
| 20260506043007 | 13 | 168 | 0.0 | 0.0 | 0.00 | 0.00 | 0.00 | 94 | 1008.6 |
| 20260506042506 | 13 | 165 | 1.6 | 1.6 | 0.00 | 0.00 | 0.00 | 94 | 1008.1 |
| 20260506042004 | 13 | 161 | 3.2 | 3.2 | 0.00 | 0.00 | 0.00 | 94 | 1008.6 |
| 20260506041502 | 13 | 192 | 0.0 | 0.0 | 0.00 | 0.00 | 0.00 | 93 | 1008.1 |
| 20260506040959 | 13 | 154 | 0.0 | 0.0 | 0.00 | 0.00 | 0.00 | 92 | 1008.1 |
| 20260506040456 | 13 | 159 | 1.6 | 1.6 | 0.18 | 0.00 | 0.00 | 91 | 1008.1 |
| 20260506035952 | 13 | 182 | 1.6 | 3.2 | 0.18 | 0.33 | 0.33 | 90 | 1008.1 |
| 20260506035449 | 13 | 170 | 1.6 | 1.6 | 0.18 | 0.30 | 0.30 | 90 | 1007.8 |
| 20260506034945 | 13 | 152 | 0.0 | 0.0 | 0.30 | 0.30 | 0.30 | 88 | 1008.1 |
| 20260506034443 | 13 | 182 | 0.0 | 0.0 | 0.13 | 0.28 | 0.28 | 87 | 1007.8 |
| 20260506033940 | 13 | 171 | 0.0 | 0.0 | 0.00 | 0.25 | 0.25 | 85 | 1007.8 |
| 20260506033438 | 13 | 174 | 0.0 | 0.0 | 0.00 | 0.25 | 0.25 | 85 | 1008.1 |
| 20260506032934 | 13 | 194 | 0.0 | 0.0 | 0.00 | 0.25 | 0.25 | 85 | 1007.8 |
| 20260506032431 | 14 | 155 | 0.0 | 0.0 | 0.00 | 0.25 | 0.25 | 84 | 1007.8 |
| 20260506031928 | 13 | 176 | 0.0 | 0.0 | 0.00 | 0.25 | 0.25 | 84 | 1007.8 |
| 20260506031425 | 14 | 176 | 0.0 | 0.0 | 0.00 | 0.25 | 0.25 | 84 | 1007.4 |
| 20260506030923 | 14 | 176 | 0.0 | 0.0 | 0.00 | 0.25 | 0.25 | 84 | 1007.4 |
| 20260506030421 | 13 | 177 | 1.6 | 1.6 | 0.00 | 0.25 | 0.25 | 84 | 1007.4 |
| 20260506025917 | 13 | 174 | 3.2 | 3.2 | 0.00 | 0.25 | 0.25 | 86 | 1007.4 |
| 20260506025414 | 13 | 169 | 1.6 | 1.6 | 0.00 | 0.25 | 0.25 | 88 | 1007.4 |
| 20260506024911 | 13 | 177 | 0.0 | 0.0 | 0.00 | 0.25 | 0.25 | 88 | 1007.8 |
| 20260506024408 | 13 | 177 | 1.6 | 1.6 | 0.00 | 0.25 | 0.25 | 88 | 1007.4 |
| 20260506023904 | 13 | 160 | 0.0 | 0.0 | 0.00 | 0.25 | 0.25 | 87 | 1007.4 |
| 20260506023401 | 13 | 113 | 0.0 | 1.6 | 0.00 | 0.25 | 0.25 | 85 | 1007.4 |
| 20260506022857 | 14 | 161 | 1.6 | 1.6 | 0.00 | 0.25 | 0.25 | 84 | 1007.4 |
| 20260506022355 | 13 | 167 | 0.0 | 1.6 | 0.00 | 0.25 | 0.25 | 85 | 1007.4 |
| 20260506021853 | 13 | 186 | 1.6 | 1.6 | 0.00 | 0.25 | 0.25 | 85 | 1007.8 |
| 20260506021349 | 14 | 171 | 0.0 | 0.0 | 0.00 | 0.25 | 0.25 | 84 | 1007.4 |
| 20260506020846 | 13 | 164 | 0.0 | 1.6 | 0.00 | 0.25 | 0.25 | 84 | 1007.4 |
| 20260506020344 | 13 | 171 | 0.0 | 0.0 | 0.00 | 0.25 | 0.25 | 84 | 1007.4 |
| 20260506015841 | 13 | 155 | 0.0 | 0.0 | 0.00 | 0.25 | 0.25 | 83 | 1007.4 |
| 20260506015339 | 13 | 196 | 1.6 | 1.6 | 0.00 | 0.25 | 0.25 | 83 | 1007.4 |
| 20260506014836 | 13 | 144 | 1.6 | 1.6 | 0.00 | 0.25 | 0.25 | 85 | 1007.1 |
| 20260506014332 | 13 | 165 | 0.0 | 0.0 | 0.00 | 0.25 | 0.25 | 84 | 1007.1 |
| 20260506013829 | 13 | 183 | 0.0 | 1.6 | 0.00 | 0.25 | 0.25 | 85 | 1007.1 |
| 20260506013326 | 13 | 168 | 0.0 | 0.0 | 0.00 | 0.25 | 0.25 | 83 | 1006.8 |
| 20260506012823 | 13 | 173 | 1.6 | 1.6 | 0.00 | 0.25 | 0.25 | 84 | 1007.1 |
| 20260506012320 | 13 | 161 | 1.6 | 1.6 | 0.00 | 0.25 | 0.25 | 83 | 1006.8 |
| 20260506011817 | 13 | 164 | 3.2 | 3.2 | 0.00 | 0.25 | 0.25 | 86 | 1006.8 |
| 20260506011314 | 13 | 171 | 3.2 | 3.2 | 0.00 | 0.25 | 0.25 | 86 | 1007.1 |
| 20260506010811 | 14 | 176 | 0.0 | 0.0 | 0.00 | 0.25 | 0.25 | 86 | 1006.8 |
| 20260506010309 | 14 | 172 | 0.0 | 0.0 | 0.00 | 0.25 | 0.25 | 85 | 1007.1 |
| 20260506005806 | 15 | 171 | 0.0 | 0.0 | 0.00 | 0.25 | 0.25 | 82 | 1006.8 |
| 20260506005305 | 15 | 171 | 1.6 | 1.6 | 0.00 | 0.25 | 0.25 | 82 | 1006.8 |
| 20260506004758 | 15 | 171 | 0.0 | 0.0 | 0.00 | 0.25 | 0.25 | 82 | 1006.8 |
| 20260506004257 | 15 | 168 | 4.8 | 4.8 | 0.00 | 0.25 | 0.25 | 78 | 1006.8 |
| 20260506003752 | 15 | 155 | 0.0 | 0.0 | 0.00 | 0.25 | 0.25 | 82 | 1007.1 |
| 20260506003249 | 15 | 156 | 0.0 | 1.6 | 0.00 | 0.25 | 0.25 | 83 | 1006.8 |
| 20260506002745 | 16 | 196 | 1.6 | 1.6 | 0.00 | 0.25 | 0.25 | 80 | 1006.8 |
| 20260506002241 | 17 | 244 | 1.6 | 3.2 | 0.00 | 0.25 | 0.25 | 74 | 1006.8 |
| 20260506001737 | 16 | 173 | 3.2 | 4.8 | 0.00 | 0.25 | 0.25 | 72 | 1006.8 |
| 20260506001235 | 15 | 221 | 1.6 | 1.6 | 0.00 | 0.25 | 0.25 | 75 | 1006.8 |